BEIDOU-3S IGSO-2S

Last updated on Thu Jul 03 2025 00:02:47 GMT+0000 (Coordinated Universal Time)

1 40938U 15053A 25183.61564661 -.00000136 00000+0 00000+0 0 9991 2 40938 49.7608 262.9360 0060010 189.5865 145.3214 1.00264108 35849
UTC large
Height (km)
Speed (km/s)
/
Latitude / Longitude
Inclination (degrees)
Orbital Period (minutes)
Azimuth
Elevation
Range (km)
Doppler Factor

Next 0 passes for location: London (51.5072 / 0.1276)

Sorry there are no passes over London.